Location: Kitchener-Waterloo
(43.4500°N, 80.5000°W)
Time: 07:49:15
(UTC-04:00)

Amateur Radio Satellites - All Passes

Search period start: 24 May 2016 07:19
Search period end: 25 May 2016 07:19
Location: Kitchener-Waterloo, 43.4500°N, 80.5000°W

Satellite Date Start Highest point End Downlink Frequencies (MHz)
Time Altitude Azimuth
Cosmos 2504 24 May 07:22:38 07:29:46 33° 275° (W) 07:37:12 435.465 / 435.565
DOVE 4 24 May 07:25:24 07:26:39 11° 87° (E) 07:27:52 437.250
CUTE-I 24 May 07:33:03 07:38:20 57° 101° (E) 07:43:36 437.470
GONETS M04 24 May 07:42:48 07:44:06 10° 50° (NE) 07:45:23
STRAND 1 24 May 07:50:43 07:55:48 82° 256° (WSW) 08:00:56 437.568
NOAA 18 24 May 07:50:54 07:56:24 87° 285° (WNW) 08:01:53 137.9125
GOMX 1 24 May 07:51:23 07:56:05 48° 98° (E) 08:00:26 467.674
PRISM 24 May 08:22:34 08:26:26 39° 70° (ENE) 08:30:20 437.425
CUTE 1.7 + AOD 2 24 May 08:22:40 08:24:41 13° 90° (E) 08:26:41 437.475
CINEMA 3 24 May 08:24:29 08:26:37 14° 90° (E) 08:28:43 145.822/145.860
Cosmos 2499 24 May 08:25:09 08:28:05 12° 54° (NE) 08:31:03 435.465 / 435.565
Cubesat XI-IV 24 May 08:25:31 08:30:41 51° 290° (WNW) 08:35:52 437.490
LilacSat-2 24 May 08:29:23 08:32:41 29° 290° (WNW) 08:35:57 437.200
HO-68 24 May 08:31:27 08:37:16 26° 93° (E) 08:43:02 435.675
NOAA 15 24 May 08:35:43 08:40:17 30° 295° (WNW) 08:44:51 137.62
SO-50 24 May 08:37:07 08:38:23 11° 27° (NNE) 08:39:39 436.795
AO-7 24 May 08:40:41 08:41:16 10° 324° (NW) 08:41:52 29.400- 29.500
BRITE-PL 24 May 08:44:37 08:49:05 28° 295° (WNW) 08:53:17 437.365/2234.400
AIST 1 24 May 08:46:25 08:50:13 28° 74° (ENE) 08:53:58
AO-85 24 May 08:50:35 08:55:45 41° 312° (NW) 09:00:46 145.980
COMPASS 1 24 May 08:58:26 09:01:10 17° 92° (E) 09:03:55 437.405
DOVE 4 24 May 09:00:28 09:04:59 69° 285° (WNW) 09:09:12 437.250
AAUSAT CUBESAT 2 24 May 09:05:04 09:07:39 16° 91° (E) 09:10:13 437.432
AUBIESAT-1 24 May 09:07:34 09:10:37 33° 103° (ESE) 09:13:37 437.475
M-CUBED/EXP-1 PRIME 24 May 09:10:36 09:13:49 45° 105° (ESE) 09:16:57 437.505
CUTE-I 24 May 09:14:01 09:17:57 21° 298° (WNW) 09:21:54 437.470
CANX-2 24 May 09:28:33 09:32:51 79° 103° (ESE) 09:37:08 2200.000
GOMX 1 24 May 09:30:18 09:33:46 20° 298° (WNW) 09:37:04 467.674
NOAA 18 24 May 09:33:33 09:36:15 14° 304° (NW) 09:38:58 137.9125
GONETS M04 24 May 09:34:58 09:43:26 52° 75° (ENE) 09:51:50
SEEDS 24 May 09:39:18 09:43:32 66° 101° (E) 09:47:45 437.485
CUBEBUG 2 24 May 09:39:29 09:43:05 28° 96° (E) 09:46:42 437.445
Oscar 11 24 May 09:45:30 09:48:32 18° 92° (E) 09:51:33 145.826/435.025
UNISAT 6 24 May 09:47:41 09:50:41 18° 65° (ENE) 09:53:41 437.425
ZACube-1 24 May 09:51:55 09:54:50 18° 93° (E) 09:57:45 437.345
TIGRISAT 24 May 09:56:17 09:59:34 21° 66° (ENE) 10:02:49 435.000
CUTE 1.7 + AOD 2 24 May 09:56:40 10:00:53 58° 286° (WNW) 10:05:05 437.475
PRISM 24 May 09:59:01 10:01:55 18° 267° (W) 10:04:49 437.425
CINEMA 3 24 May 10:00:02 10:04:07 51° 287° (WNW) 10:08:08 145.822/145.860
DELFI C3 24 May 10:07:57 10:10:11 14° 91° (E) 10:12:24 145.870
Cosmos 2499 24 May 10:14:54 10:23:13 57° 76° (ENE) 10:31:53 435.465 / 435.565
SO-50 24 May 10:15:34 10:20:07 45° 49° (NE) 10:24:32 436.795
UWE-3 24 May 10:16:07 10:20:10 50° 99° (E) 10:24:15 435.000/436.395/437.385
HO-68 24 May 10:18:22 10:25:26 64° 291° (WNW) 10:32:30 435.675
AIST 1 24 May 10:24:06 10:27:43 26° 271° (W) 10:31:17
ANTELSAT 24 May 10:27:38 10:31:50 45° 72° (ENE) 10:35:59 437.575/2403.000
FUNcube-1 24 May 10:31:21 10:35:22 46° 99° (E) 10:39:26 145.935
COMPASS 1 24 May 10:32:56 10:36:57 44° 288° (WNW) 10:40:57 437.405
HUMSAT D 24 May 10:34:58 10:36:58 13° 91° (E) 10:38:58 437.325/437.525
AO-85 24 May 10:35:49 10:37:37 12° 333° (NNW) 10:39:24 145.980
AAUSAT CUBESAT 2 24 May 10:39:21 10:43:23 46° 288° (WNW) 10:47:23 437.432
NANOSAT C BR1 24 May 10:42:26 10:44:18 13° 62° (ENE) 10:46:12 145.865
AUBIESAT-1 24 May 10:42:57 10:44:54 15° 301° (WNW) 10:46:50 437.475
O/OREOS (USA 219) 24 May 10:44:27 10:48:51 48° 108° (ESE) 10:53:14 437.305
M-CUBED/EXP-1 PRIME 24 May 10:46:58 10:48:01 11° 303° (WNW) 10:49:02 437.505
CANX-2 24 May 11:06:51 11:08:04 11° 299° (WNW) 11:09:18 2200.000
CUBEBUG 2 24 May 11:16:14 11:19:39 25° 292° (WNW) 11:23:03 437.445
SEEDS 24 May 11:16:46 11:18:42 13° 298° (WNW) 11:20:37 437.485
Oscar 11 24 May 11:20:45 11:24:51 42° 289° (WNW) 11:28:57 145.826/435.025
DUCHIFAT 1 24 May 11:20:50 11:24:29 29° 69° (ENE) 11:28:09 145.980
PCSat 24 May 11:21:30 11:26:53 72° 118° (ESE) 11:32:19 145.827
UNISAT 6 24 May 11:22:53 11:27:06 45° 260° (W) 11:31:17 437.425
ZACube-1 24 May 11:27:24 11:31:17 39° 289° (WNW) 11:35:12 437.345
TIGRISAT 24 May 11:31:56 11:36:02 38° 262° (W) 11:40:06 435.000
GONETS M04 24 May 11:32:17 11:39:56 36° 275° (W) 11:47:33
DELFI C3 24 May 11:41:26 11:45:19 47° 287° (WNW) 11:49:11 145.870
JAS-2 24 May 11:53:37 11:59:17 25° 57° (ENE) 12:05:13 435.910
UWE-3 24 May 11:53:48 11:56:15 15° 296° (WNW) 11:58:43 435.000/436.395/437.385
POPSAT HIP 1 24 May 11:53:48 11:58:03 74° 74° (ENE) 12:02:18 437.405
QB50P1 24 May 11:54:35 11:58:50 76° 76° (ENE) 12:03:05 145.935-145.965
BUGSAT 1 24 May 11:54:56 11:58:44 33° 69° (ENE) 12:02:30 437.445
QB50P2 24 May 11:55:30 11:59:45 82° 75° (ENE) 12:04:01 145.880/145.840
SO-50 24 May 11:56:37 12:00:20 23° 248° (WSW) 12:03:56 436.795
POLYITAN 1 24 May 11:57:56 12:02:10 84° 79° (E) 12:06:26 437.675
CUSAT 1 24 May 11:59:19 12:04:22 28° 83° (E) 12:10:19 437.405
AISAT 24 May 12:02:17 12:05:06 16° 92° (E) 12:07:54 437.250
ANTELSAT 24 May 12:05:53 12:08:47 17° 268° (W) 12:11:38 437.575/2403.000
HO-68 24 May 12:08:28 12:11:48 14° 312° (NW) 12:15:07 435.675
Cosmos 2499 24 May 12:08:36 12:15:58 34° 275° (W) 12:23:35 435.465 / 435.565
FUNcube-1 24 May 12:08:38 12:11:17 17° 296° (WNW) 12:13:57 145.935
HUMSAT D 24 May 12:08:52 12:12:55 54° 287° (WNW) 12:16:59 437.325/437.525
NANOSAT C BR1 24 May 12:15:18 12:19:31 66° 258° (WSW) 12:23:45 145.865
Oscar 19 24 May 12:19:14 12:21:28 13° 57° (ENE) 12:23:42 437.125/150
ESTCUBE 1 24 May 12:23:45 12:28:02 39° 98° (E) 12:32:17 437.505/2401.250
O/OREOS (USA 219) 24 May 12:25:06 12:28:31 20° 306° (NW) 12:31:55 437.305
UKube-1 24 May 12:30:44 12:34:02 21° 94° (E) 12:37:18 .
BEESAT 3 24 May 12:50:13 12:53:51 37° 117° (ESE) 12:57:30 437.485
DUCHIFAT 1 24 May 12:56:39 13:00:10 25° 265° (W) 13:03:41 145.980
DANDE 24 May 13:00:41 13:05:22 36° 87° (E) 13:11:22 436.750
VELOX 1 24 May 13:01:50 13:06:17 67° 102° (ESE) 13:10:40 145.980
CUBEBUG 1 24 May 13:05:00 13:09:25 75° 102° (ESE) 13:13:46 437.445
PCSat 24 May 13:06:41 13:10:50 22° 317° (NW) 13:15:01 145.827
DX 1 24 May 13:09:35 13:13:57 68° 102° (ESE) 13:18:16 434.975-435.025
50 SAT 24 May 13:16:58 13:20:39 62° 286° (WNW) 13:24:20 437.505
BUGSAT 1 24 May 13:30:50 13:34:09 22° 266° (W) 13:37:29 437.445
POPSAT HIP 1 24 May 13:33:55 13:34:20 10° 271° (W) 13:34:43 437.405
JAS-2 24 May 13:36:10 13:43:23 80° 257° (WSW) 13:51:15 435.910
AISAT 24 May 13:37:35 13:41:52 49° 288° (WNW) 13:46:06 437.250
CUSAT 1 24 May 13:39:57 13:45:52 55° 287° (WNW) 13:53:15 437.405
BEESAT 2 24 May 13:45:14 13:49:12 84° 123° (ESE) 13:53:13 435.950
Gurwin Techsat 1B 24 May 13:48:11 13:52:54 34° 66° (ENE) 13:57:37 435.225
SPROUT 24 May 13:49:15 13:53:32 89° 105° (ESE) 13:57:47 437.525
Oscar 19 24 May 13:54:47 13:59:59 86° 75° (ENE) 14:05:14 437.125/150
ESTCUBE 1 24 May 14:01:04 14:04:37 23° 295° (WNW) 14:08:08 437.505/2401.250
AO-7 24 May 14:01:31 14:06:53 19° 47° (NE) 14:12:14 29.400- 29.500
UKube-1 24 May 14:06:12 14:10:12 37° 291° (WNW) 14:14:09 .
TISAT 1 24 May 14:27:16 14:31:26 65° 101° (E) 14:35:34 437.305
BEESAT 3 24 May 14:28:24 14:31:38 24° 315° (NW) 14:34:54 437.485
ITAMSAT 1 24 May 14:28:57 14:33:30 32° 66° (ENE) 14:38:03 435.822/435.867
VELOX 1 24 May 14:39:57 14:42:12 14° 299° (WNW) 14:44:27 145.980
CUBEBUG 1 24 May 14:43:20 14:45:04 12° 300° (WNW) 14:46:48 437.445
DANDE 24 May 14:43:24 14:48:13 34° 294° (WNW) 14:54:23 436.750
DX 1 24 May 14:47:29 14:49:35 13° 299° (WNW) 14:51:41 434.975-435.025
Cosmos 2491 24 May 14:49:11 14:56:07 25° 64° (ENE) 15:02:57 435.465 / 435.565
SWISSCUBE 24 May 14:59:40 15:03:53 30° 96° (E) 15:08:05 437.505
ITUPSAT 1 24 May 15:03:48 15:08:00 29° 96° (E) 15:12:10 437.325
AIST 2 24 May 15:24:12 15:28:15 60° 121° (ESE) 15:32:20 435.215
BEESAT 2 24 May 15:25:25 15:27:36 14° 322° (NW) 15:29:48 435.950
JAS-2 24 May 15:25:29 15:29:37 16° 277° (W) 15:33:55 435.910
CUSAT 1 24 May 15:27:52 15:30:05 12° 310° (NW) 15:32:25 437.405
Gurwin Techsat 1B 24 May 15:28:02 15:32:48 33° 264° (W) 15:37:36 435.225
BEESAT 24 May 15:29:31 15:34:13 53° 100° (E) 15:38:53 436.000
Oscar 19 24 May 15:38:03 15:39:58 12° 272° (W) 15:41:54 437.125/150
AO-85 24 May 15:41:22 15:45:51 37° 47° (NE) 15:49:55 145.980
AO-7 24 May 15:50:04 15:58:19 75° 68° (ENE) 16:06:38 29.400- 29.500
KKS-1 24 May 15:50:21 15:50:45 10° 88° (E) 15:51:08 437.445
TISAT 1 24 May 16:04:43 16:06:34 13° 299° (WNW) 16:08:24 437.305
ITAMSAT 1 24 May 16:08:14 16:12:54 34° 263° (W) 16:17:35 435.822/435.867
HORYU 2 24 May 16:14:03 16:17:19 21° 65° (ENE) 16:20:37 437.375
STARS 24 May 16:33:53 16:36:36 16° 92° (E) 16:39:16 437.465
SWISSCUBE 24 May 16:37:25 16:41:38 32° 293° (WNW) 16:45:51 437.505
ITUPSAT 1 24 May 16:41:33 16:45:49 32° 293° (WNW) 16:50:04 437.325
NOAA 15 24 May 16:42:22 16:43:12 10° 54° (NE) 16:44:01 137.62
Cosmos 2491 24 May 16:45:09 16:53:56 77° 265° (W) 17:02:36 435.465 / 435.565
YUBILEINY 24 May 16:47:53 16:56:07 50° 89° (E) 17:04:21 435.215
AIST 2 24 May 17:04:10 17:07:06 18° 319° (NW) 17:10:04 435.215
BEESAT 24 May 17:08:17 17:11:36 19° 298° (WNW) 17:14:55 436.000
MOZHAYETS 4 24 May 17:12:38 17:17:13 61° 101° (E) 17:21:48
CUTE-I 24 May 17:19:01 17:22:02 16° 58° (ENE) 17:25:03 437.470
RS-15 24 May 17:21:20 17:30:35 31° 103° (ESE) 17:40:12 29.354- 29.394
AO-85 24 May 17:22:14 17:26:08 27° 248° (WSW) 17:29:44 145.980
KKS-1 24 May 17:23:25 17:27:53 79° 284° (WNW) 17:32:17 437.445
NOAA 18 24 May 17:39:03 17:43:41 29° 64° (ENE) 17:48:19 137.9125
LilacSat-2 24 May 17:39:50 17:41:38 13° 64° (ENE) 17:43:27 437.200
AO-7 24 May 17:45:21 17:51:49 25° 267° (W) 17:58:21 29.400- 29.500
HORYU 2 24 May 17:49:27 17:53:38 41° 261° (W) 17:57:49 437.375
STARS 24 May 18:09:00 18:13:14 49° 288° (WNW) 18:17:26 437.465
Cubesat XI-IV 24 May 18:09:08 18:14:03 40° 68° (ENE) 18:18:59 437.490
Cosmos 2504 24 May 18:09:18 18:15:56 42° 88° (E) 18:22:54 435.465 / 435.565
BRITE-PL 24 May 18:16:25 18:21:48 51° 71° (ENE) 18:27:19 437.365/2234.400
NOAA 15 24 May 18:16:43 18:21:58 68° 72° (ENE) 18:27:16 137.62
PCSat 24 May 18:26:06 18:29:20 16° 37° (NE) 18:32:33 145.827
CUBESAT XI-V 24 May 18:28:20 18:32:51 44° 98° (E) 18:37:21 437.345
DOVE 4 24 May 18:30:22 18:33:49 18° 63° (ENE) 18:37:11 437.250
Cosmos 2491 24 May 18:44:45 18:49:10 15° 286° (WNW) 18:53:34 435.465 / 435.565
YUBILEINY 24 May 18:45:10 18:53:06 38° 290° (WNW) 19:01:05 435.215
MOZHAYETS 4 24 May 18:51:08 18:53:54 16° 298° (WNW) 18:56:41
CUTE-I 24 May 18:56:06 19:01:24 80° 257° (WSW) 19:06:45 437.470
GOMX 1 24 May 18:59:10 19:04:35 61° 73° (ENE) 19:09:56 467.674
HO-68 24 May 19:02:13 19:07:36 24° 56° (NE) 19:12:59 435.675
LilacSat-2 24 May 19:11:49 19:15:32 50° 260° (W) 19:19:15 437.200
O/OREOS (USA 219) 24 May 19:15:16 19:17:45 14° 50° (NE) 19:20:13 437.305
CUTE 1.7 + AOD 2 24 May 19:17:33 19:19:00 12° 61° (ENE) 19:20:26 437.475
NOAA 18 24 May 19:19:01 19:24:10 41° 261° (W) 19:29:19 137.9125
CINEMA 3 24 May 19:26:42 19:29:55 18° 65° (ENE) 19:33:02 145.822/145.860
RS-15 24 May 19:30:21 19:41:45 79° 306° (NW) 19:53:52 29.354- 29.394
Cubesat XI-IV 24 May 19:49:43 19:54:13 28° 265° (W) 19:58:45 437.490
COMPASS 1 24 May 19:51:11 19:53:20 14° 63° (ENE) 19:55:28 437.405
AUBIESAT-1 24 May 19:53:58 19:58:08 62° 69° (ENE) 20:02:00 437.475
BRITE-PL 24 May 19:55:58 20:00:30 25° 268° (W) 20:05:08 437.365/2234.400
M-CUBED/EXP-1 PRIME 24 May 19:57:24 20:01:43 84° 71° (ENE) 20:05:43 437.505
AAUSAT CUBESAT 2 24 May 19:57:25 19:59:19 13° 62° (ENE) 20:01:15 437.432
NOAA 15 24 May 19:59:00 20:02:14 16° 270° (W) 20:05:30 137.62
STRAND 1 24 May 20:00:20 20:04:53 31° 96° (E) 20:09:26 437.568
Cosmos 2504 24 May 20:02:49 20:09:22 37° 289° (WNW) 20:16:16 435.465 / 435.565
DOVE 4 24 May 20:05:46 20:11:01 66° 259° (W) 20:16:07 437.250
CUBESAT XI-V 24 May 20:06:22 20:09:57 22° 295° (WNW) 20:13:31 437.345
PCSat 24 May 20:08:16 20:13:43 73° 58° (ENE) 20:19:07 145.827
CANX-2 24 May 20:22:09 20:26:18 63° 74° (ENE) 20:30:28 2200.000
BEESAT 2 24 May 20:26:19 20:27:42 11° 35° (NE) 20:29:04 435.950
SEEDS 24 May 20:31:54 20:35:56 51° 73° (ENE) 20:40:01 437.485
CUBEBUG 2 24 May 20:38:37 20:42:25 29° 69° (ENE) 20:46:08 437.445
GOMX 1 24 May 20:39:06 20:42:59 19° 270° (W) 20:46:52 467.674
Oscar 11 24 May 20:41:50 20:44:37 17° 64° (ENE) 20:47:26 145.826/435.025
HO-68 24 May 20:47:28 20:54:36 76° 255° (WSW) 21:01:48 435.675
ZACube-1 24 May 20:49:15 20:52:06 18° 65° (ENE) 20:54:55 437.345
CUTE 1.7 + AOD 2 24 May 20:50:03 20:54:14 73° 259° (W) 20:58:28 437.475
O/OREOS (USA 219) 24 May 20:53:13 20:57:43 73° 249° (WSW) 21:02:08 437.305
DELFI C3 24 May 20:56:50 20:57:40 11° 61° (ENE) 20:58:30 145.870
CINEMA 3 24 May 21:01:59 21:06:41 53° 260° (W) 21:11:14 145.822/145.860
BEESAT 3 24 May 21:06:18 21:09:56 33° 48° (NE) 21:13:33 437.485
UWE-3 24 May 21:14:00 21:18:09 47° 73° (ENE) 21:22:14 435.000/436.395/437.385
AIST 1 24 May 21:18:00 21:20:42 16° 85° (E) 21:23:25
COMPASS 1 24 May 21:24:21 21:28:25 57° 260° (W) 21:32:32 437.405
FUNcube-1 24 May 21:27:53 21:31:52 41° 72° (ENE) 21:35:49 145.935
HUMSAT D 24 May 21:28:35 21:29:54 11° 61° (ENE) 21:31:14 437.325/437.525
AAUSAT CUBESAT 2 24 May 21:30:14 21:34:18 61° 260° (W) 21:38:26 437.432
AUBIESAT-1 24 May 21:31:13 21:32:51 12° 263° (W) 21:34:28 437.475
PRISM 24 May 21:37:52 21:42:00 54° 101° (E) 21:46:04 437.425
STRAND 1 24 May 21:39:26 21:44:03 34° 293° (WNW) 21:48:39 437.568
RS-15 24 May 21:46:14 21:56:28 33° 335° (NNW) 22:07:12 29.354- 29.394
PCSat 24 May 21:53:08 21:56:28 17° 256° (WSW) 21:59:48 145.827
DANDE 24 May 21:59:05 21:59:26 10° 49° (NE) 21:59:48 436.750
CANX-2 24 May 22:01:04 22:02:34 12° 271° (W) 22:04:05 2200.000
BEESAT 2 24 May 22:02:17 22:06:17 71° 55° (NE) 22:10:15 435.950
AIST 2 24 May 22:08:30 22:09:09 10° 32° (NNE) 22:09:48 435.215
SEEDS 24 May 22:09:42 22:11:57 14° 270° (W) 22:14:13 437.485
CUBEBUG 2 24 May 22:15:14 22:19:01 27° 265° (W) 22:22:43 437.445
Oscar 11 24 May 22:16:15 22:20:23 47° 261° (W) 22:24:34 145.826/435.025
ZACube-1 24 May 22:24:00 22:28:05 44° 261° (W) 22:32:08 437.345
DELFI C3 24 May 22:28:01 22:31:57 72° 258° (WSW) 22:35:56 145.870
CUSAT 1 24 May 22:31:58 22:38:35 28° 63° (ENE) 22:44:33 437.405
GONETS M04 24 May 22:37:02 22:45:34 58° 91° (E) 22:54:05
HO-68 24 May 22:40:22 22:43:27 13° 274° (W) 22:46:32 435.675
BEESAT 3 24 May 22:44:16 22:47:30 24° 246° (WSW) 22:50:42 437.485
UWE-3 24 May 22:52:08 22:54:51 16° 268° (W) 22:57:33 435.000/436.395/437.385
AIST 1 24 May 22:53:40 22:57:53 46° 282° (WNW) 23:02:10
Cosmos 2499 24 May 22:53:46 23:00:21 40° 87° (E) 23:07:19 435.465 / 435.565
AISAT 24 May 23:00:52 23:03:56 18° 63° (ENE) 23:07:00 437.250
HUMSAT D 24 May 23:00:55 23:04:59 69° 258° (WSW) 23:09:03 437.325/437.525
FUNcube-1 24 May 23:05:25 23:08:18 18° 267° (W) 23:11:09 145.935
UNISAT 6 24 May 23:13:17 23:17:07 31° 96° (E) 23:20:58 437.425
PRISM 24 May 23:14:30 23:16:52 15° 298° (WNW) 23:19:14 437.425
ISS 24 May 23:15:08 23:18:14 42° 141° (SE) 23:21:21 145.825
TIGRISAT 24 May 23:21:54 23:25:52 36° 98° (E) 23:29:51 435.000
ESTCUBE 1 24 May 23:24:13 23:28:27 41° 70° (ENE) 23:32:42 437.505/2401.250
UKube-1 24 May 23:26:29 23:29:47 22° 65° (ENE) 23:33:06 .
PHONESAT 2.4 24 May 23:29:24 23:30:14 11° 150° (SSE) 23:31:05 2401.200-2431.200
DANDE 24 May 23:36:43 23:44:39 43° 70° (ENE) 23:52:12 436.750
POPSAT HIP 1 24 May 23:40:10 23:41:04 11° 89° (E) 23:41:57 437.405
QB50P1 24 May 23:40:38 23:41:49 11° 89° (E) 23:42:59 145.935-145.965
QB50P2 24 May 23:41:19 23:42:58 12° 90° (E) 23:44:38 145.880/145.840
BEESAT 2 24 May 23:42:24 23:43:34 11° 251° (WSW) 23:44:42 435.950
POLYITAN 1 24 May 23:43:40 23:45:24 12° 90° (E) 23:47:09 437.675
AIST 2 24 May 23:44:27 23:48:33 56° 52° (NE) 23:52:37 435.215
ANTELSAT 24 May 23:54:19 23:58:37 88° 103° (ESE) 00:02:58 437.575/2403.000
50 SAT 24 May 23:56:01 23:59:37 67° 75° (ENE) 00:03:15 437.505
NANOSAT C BR1 24 May 23:59:32 00:02:22 17° 92° (E) 00:05:11 145.865
VELOX 1 24 May 23:59:53 00:04:19 68° 74° (ENE) 00:08:46 145.980
CUBEBUG 1 25 May 00:01:36 00:06:01 71° 74° (ENE) 00:10:28 437.445
RS-15 25 May 00:04:07 00:13:59 27° 10° (N) 00:24:01 29.354- 29.394
DX 1 25 May 00:05:50 00:10:10 67° 74° (ENE) 00:14:33 434.975-435.025
CUSAT 1 25 May 00:13:32 00:21:28 69° 265° (W) 00:28:14 437.405
SO-50 25 May 00:34:10 00:35:27 11° 106° (ESE) 00:36:44 436.795
GONETS M04 25 May 00:35:04 00:42:49 34° 292° (WNW) 00:50:36
AISAT 25 May 00:35:43 00:40:03 48° 260° (W) 00:44:24 437.250
DUCHIFAT 1 25 May 00:38:49 00:42:50 44° 99° (E) 00:46:48 145.980
SPROUT 25 May 00:43:31 00:47:49 78° 75° (ENE) 00:52:07 437.525
Cosmos 2499 25 May 00:46:45 00:53:25 39° 289° (WNW) 01:00:34 435.465 / 435.565
JAS-2 25 May 00:47:07 00:51:42 17° 84° (E) 00:56:01 435.910
UNISAT 6 25 May 00:50:15 00:53:43 24° 293° (WNW) 00:57:12 437.425
ISS 25 May 00:51:43 00:54:44 33° 339° (NNW) 00:57:45 145.825
TIGRISAT 25 May 00:59:07 01:02:21 21° 294° (WNW) 01:05:36 435.000
UKube-1 25 May 01:01:35 01:05:37 37° 262° (W) 01:09:40 .
ESTCUBE 1 25 May 01:02:04 01:05:25 20° 267° (W) 01:08:48 437.505/2401.250
PHONESAT 2.4 25 May 01:03:34 01:06:26 33° 165° (SSE) 01:09:18 2401.200-2431.200
BUGSAT 1 25 May 01:10:32 01:14:28 46° 99° (E) 01:18:20 437.445
POPSAT HIP 1 25 May 01:13:08 01:17:19 69° 286° (WNW) 01:21:28 437.405
QB50P1 25 May 01:13:51 01:18:02 66° 286° (WNW) 01:22:11 145.935-145.965
QB50P2 25 May 01:15:01 01:19:11 61° 287° (WNW) 01:23:19 145.880/145.840
POLYITAN 1 25 May 01:17:28 01:21:36 60° 287° (WNW) 01:25:44 437.675
DANDE 25 May 01:19:38 01:27:35 48° 270° (W) 01:35:06 436.750
TISAT 1 25 May 01:19:42 01:23:50 55° 73° (ENE) 01:27:59 437.305
AIST 2 25 May 01:24:10 01:26:36 15° 250° (WSW) 01:29:02 435.215
NANOSAT C BR1 25 May 01:34:21 01:38:18 41° 289° (WNW) 01:42:13 145.865
VELOX 1 25 May 01:39:25 01:41:14 12° 270° (W) 01:43:05 145.980
CUBEBUG 1 25 May 01:41:17 01:42:47 11° 271° (W) 01:44:18 437.445
DX 1 25 May 01:45:09 01:46:49 12° 270° (W) 01:48:30 434.975-435.025
CUSAT 1 25 May 01:58:39 02:01:54 13° 285° (WNW) 02:05:01 437.405
Gurwin Techsat 1B 25 May 02:05:21 02:06:55 11° 87° (E) 02:08:30 435.225
Oscar 19 25 May 02:05:42 02:10:06 27° 95° (E) 02:14:27 437.125/150
SWISSCUBE 25 May 02:07:07 02:11:31 39° 69° (ENE) 02:15:57 437.505
SO-50 25 May 02:10:15 02:15:10 84° 125° (SE) 02:20:05 436.795
ITUPSAT 1 25 May 02:11:33 02:15:56 38° 69° (ENE) 02:20:21 437.325
DUCHIFAT 1 25 May 02:15:26 02:18:12 17° 296° (WNW) 02:20:58 145.980
RS-15 25 May 02:18:21 02:30:17 52° 42° (NE) 02:42:13 29.354- 29.394
ISS 25 May 02:29:26 02:31:51 19° 359° (N) 02:34:17 145.825
JAS-2 25 May 02:30:09 02:37:51 88° 105° (ESE) 02:44:45 435.910
BEESAT 25 May 02:36:50 02:41:33 70° 74° (ENE) 02:46:18 436.000
PHONESAT 2.4 25 May 02:39:53 02:42:56 48° 182° (S) 02:45:58 2401.200-2431.200
BUGSAT 1 25 May 02:47:00 02:49:29 16° 296° (WNW) 02:51:56 437.445
KKS-1 25 May 02:48:46 02:50:43 13° 60° (ENE) 02:52:38 437.445
YUBILEINY 25 May 02:56:39 03:03:43 26° 65° (ENE) 03:10:46 435.215
TISAT 1 25 May 02:57:41 02:59:49 14° 269° (W) 03:01:58 437.305
STARS 25 May 03:31:45 03:34:43 18° 63° (ENE) 03:37:41 437.465
Gurwin Techsat 1B 25 May 03:42:15 03:47:37 88° 104° (ESE) 03:52:56 435.225
Oscar 19 25 May 03:44:44 03:49:30 38° 292° (WNW) 03:54:14 437.125/150
SWISSCUBE 25 May 03:45:39 03:49:26 23° 266° (W) 03:53:15 437.505
ITUPSAT 1 25 May 03:50:03 03:53:53 24° 266° (W) 03:57:45 437.325
AO-7 25 May 03:51:31 03:57:39 22° 91° (E) 04:03:45 29.400- 29.500
SO-50 25 May 03:52:48 03:56:17 19° 323° (NW) 03:59:46 436.795
Cosmos 2491 25 May 03:52:55 03:59:49 27° 81° (E) 04:06:43 435.465 / 435.565
Cosmos 2504 25 May 03:59:38 04:05:10 19° 61° (ENE) 04:10:51 435.465 / 435.565
ISS 25 May 04:06:06 04:09:02 29° 19° (NNE) 04:11:57 145.825
MOZHAYETS 4 25 May 04:15:23 04:19:53 65° 74° (ENE) 04:24:26
JAS-2 25 May 04:16:23 04:21:47 22° 305° (NW) 04:26:54 435.910
PHONESAT 2.4 25 May 04:16:41 04:19:23 27° 199° (SSW) 04:22:04 2401.200-2431.200
BEESAT 25 May 04:17:36 04:19:50 13° 270° (W) 04:22:04 436.000
ITAMSAT 1 25 May 04:19:05 04:24:19 77° 103° (ESE) 04:29:33 435.822/435.867
KKS-1 25 May 04:22:12 04:26:40 76° 257° (WSW) 04:31:10 437.445
RS-15 25 May 04:31:13 04:43:07 59° 247° (WSW) 04:54:58 29.354- 29.394
YUBILEINY 25 May 04:52:40 05:01:22 73° 266° (W) 05:10:05 435.215
STARS 25 May 05:06:25 05:10:42 49° 260° (W) 05:15:00 437.465
Gurwin Techsat 1B 25 May 05:24:07 05:26:48 14° 302° (WNW) 05:29:30 435.225
CUBESAT XI-V 25 May 05:32:29 05:36:58 48° 72° (ENE) 05:41:29 437.345
HORYU 2 25 May 05:39:04 05:43:03 32° 97° (E) 05:47:03 437.375
ISS 25 May 05:42:25 05:45:38 55° 217° (SW) 05:48:49 145.825
AO-7 25 May 05:42:54 05:51:18 83° 290° (WNW) 05:59:40 29.400- 29.500
Cosmos 2491 25 May 05:47:03 05:55:51 70° 281° (W) 06:04:41 435.465 / 435.565
Cosmos 2504 25 May 05:51:25 05:59:46 83° 81° (E) 06:08:35 435.465 / 435.565
MOZHAYETS 4 25 May 05:55:21 05:57:30 13° 271° (W) 05:59:39
AO-85 25 May 05:59:39 06:01:08 11° 105° (ESE) 06:02:35 145.980
ITAMSAT 1 25 May 06:00:08 06:03:09 16° 301° (WNW) 06:06:11 435.822/435.867
BRITE-PL 25 May 06:22:19 06:25:08 15° 87° (E) 06:27:51 437.365/2234.400
Cubesat XI-IV 25 May 06:26:32 06:29:18 14° 89° (E) 06:32:03 437.490
NOAA 15 25 May 06:31:26 06:35:35 23° 93° (E) 06:39:42 137.62
LilacSat-2 25 May 06:45:07 06:47:22 15° 92° (E) 06:49:37 437.200
RS-15 25 May 06:48:53 06:52:45 12° 268° (W) 06:56:37 29.354- 29.394
YUBILEINY 25 May 06:52:31 06:56:31 14° 287° (WNW) 07:00:32 435.215
GOMX 1 25 May 07:02:01 07:04:46 15° 88° (E) 07:07:26 467.674
CUBESAT XI-V 25 May 07:11:22 07:14:36 19° 269° (W) 07:17:53 437.345
